ISS DEB (SEDA-AP) (43870 NORAD) Tracking and Keplerian Element Data

This shows tracking and keplerian element data for the satellite.

Feedback or suggestion? Click here.




ElementValue
Catalog43870
NameISS DEB (SEDA-AP)
Epoch Orbit2359
Epoch Day142.37070716
Epoch Year2019
RAAN127.5891
Inclination51.6405
Eccentricity0.0005204
Argument of Perigee34.1978
Mean Anonmoly325.9342
Mean Motion15.55200734
Decay Rate2.567E-05
L11 43870U 98067PU 19142.37070716 .00002567 00000-0 44346-4 0 9995
L22 43870 51.6405 127.5891 0005204 34.1978 325.9342 15.55200734 23590

Live tracking and technical data element details for ISS DEB (SEDA-AP) (NORAD 43870). ISS DEB (SEDA-AP) can be tracked NOW for your location showing map with azimuth and elevation plus other details from your city location.

Track the satellite on the map from your city or location and see movement details for azimuth, elevation, latitude, longitude, range, height, and movement on the map or in text.







IsCatalogInMostPopularTable: catalog: 43870, numindb: 81
Update: records affected: 1



GetName: 43870 ISS DEB (SEDA-AP)

Hit Count: updated at: Thu, 23 May 2019 14:58:09 GMT